Tiempo atmosférico en la estación meteorológica de Cabacés, Tarragona (360 m.)



Fecha
DESCASC
Temp. máxima en grados centígrados (hora)
DESCASC
Temp. mínima en grados centígrados (hora)
DESCASC
Temp. media en grados centígrados
DESCASC
Racha de viento máxima en m/sg (hora)
DESCASC
Velocidad máxima media en intervalos de 10 minutos(hora)
DESCASC
Precipitaciones diarias en mm
DESCASC
Precipitaciones de 00:00 a 06:00 en mm
DESCASC
Precipitaciones de 06:00 a 12:00 en mm
DESCASC
Precipitaciones de 12:00 a 18:00 en mm
DESCASC
Precipitaciones de 18:00 a 24:00 en mm
DESCASC
05-04-2020 17.7 (16:30) 7.9 (07:20) 12.8 9.17 (15:20) 4.17 (15:20) 0 0 0 0 0
04-04-2020 18.6 (15:20) 4.9 (08:30) 11.8 9.17 (18:50) 4.17 (18:50) 0 0 0 0 0
03-04-2020 16.8 (18:30) 6 (08:00) 11.4 5.28 (13:50) 2.22 (11:40) 0.6 0.4 0 0.2 0
02-04-2020 13.3 (17:50) 7.9 (00:00) 10.6 2.78 (23:20) 1.11 (23:10) 5.4 3.6 1 0 0.8
01-04-2020 12.5 (11:30) 4.7 (00:00) 8.6 10.56 (13:00) 3.61 (08:40) 28.8 0 0 20.6 8.2
31-03-2020 5.7 (15:10) 3.2 (00:00) 4.4 2.78 (01:00) 1.39 (06:40) 10.6 0.4 0.6 5.2 4.4
30-03-2020 10 (00:00) 3.8 (00:00) 6.9 6.39 (05:00) 2.78 (11:30) 0.4 0 0 0.4 0
29-03-2020 19.5 (17:10) 6.3 (00:00) 12.9 7.5 (15:50) 2.5 (15:50) 0 0 0 0 0
28-03-2020 17.8 (17:00) 7.3 (00:00) 12.5 6.67 (13:00) 2.78 (13:00) 0 0 0 0 0
27-03-2020 15.2 (18:20) 0.6 (00:00) 7.9 7.5 (13:00) 2.5 (13:50) 0 0 0 0 0
26-03-2020 13.6 (13:50) 4.3 (00:00) 9 7.22 (16:40) 2.5 (14:30) 5.4 0 0 5.4 0
25-03-2020 9.5 (16:10) 5 (00:00) 7.3 6.39 (07:50) 2.5 (13:20) 0.8 0 0.8 0 0
24-03-2020 14 (11:40) 8.1 (00:00) 11.1 8.06 (13:00) 3.06 (15:50) 0 0 0 0 0
23-03-2020 14.9 (11:30) 8.3 (00:00) 11.6 6.39 (11:00) 2.5 (16:20) 4.2 0.2 0.6 3.4 0
22-03-2020 15 (12:00) 5 (05:40) 10 8.33 (13:20) 3.33 (13:30) 3 0 0 0 3
21-03-2020 18 (15:20) 3.7 (00:00) 10.9 6.39 (18:30) 3.61 (18:40) 0 0 0 0 0
20-03-2020 17.1 (14:30) 7.7 (00:00) 12.4 8.89 (18:40) 4.17 (15:00) 0 0 0 0 0
19-03-2020 17.2 (16:20) 6.6 (00:00) 11.9 7.78 (14:20) 3.61 (13:30) 0 0 0 0 0
18-03-2020 17.3 (14:50) 7.8 (00:00) 12.5 4.72 (16:50) 2.22 (17:00) 0 0 0 0 0
17-03-2020 17.5 (14:30) 10.3 (00:00) 13.9 11.39 (01:50) 3.33 (01:30) 0.8 0 0.8 0 0
16-03-2020 14.5 (12:10) 10.8 (00:00) 12.7 11.67 (19:10) 4.17 (02:40) 4.4 0.8 0 3.2 0.4
15-03-2020 16.2 (12:50) 6.9 (00:00) 11.6 15.28 (22:50) 5.28 (21:40) 0.6 0 0 0 0.6
14-03-2020 19.7 (16:50) 7 (00:00) 13.4 6.39 (09:30) 2.5 (13:50) 0 0 0 0 0
13-03-2020 19.6 (15:50) 10 (07:10) 14.8 5.28 (16:00) 2.22 (13:20) 0 0 0 0 0
12-03-2020 27 (15:30) 8.2 (00:00) 17.6 9.17 (21:20) 3.89 (21:30) 0 0 0 0 0
11-03-2020 25.5 (16:50) 8.5 (00:00) 17 5.83 (13:10) 2.22 (05:00) 0 0 0 0 0
10-03-2020 20 (17:30) 6.1 (00:00) 13 5.56 (11:50) 2.22 (15:00) 0 0 0 0 0

Gráficas

Temp. máximas Temp. mínimas Temp. medias Precipitaciones Rachas de viento máximas Velocidades máximas media en intervalos de 10 minutos

Datos horarios

Fecha y hora oficial Temperatura (ºC) Velocidad del viento (km/h) Dirección del viento Racha (km/h) Dirección de racha Precipitación (mm) Presión (hPa) Tendencia (hPa) Humedad (%)
2020-04-08 23:00:00 13.2 3 Sur 19 Sudeste 0 -- -- 52
2020-04-08 22:00:00 13.6 6 Oeste 19 Este 0 -- -- 51
2020-04-08 21:00:00 13.9 3 Sudoeste 23 Este 0 -- -- 53
2020-04-08 20:00:00 15.4 8 Sur 22 Sudeste 0 -- -- 50
2020-04-08 19:00:00 18.2 4 Sudoeste 19 Sudeste 0 -- -- 44
2020-04-08 18:00:00 18.7 8 Sudeste 24 Oeste 0 -- -- 49
2020-04-08 17:00:00 18.9 9 Oeste 19 Sudoeste 0 -- -- 53
2020-04-08 16:00:00 17.7 8 Sudeste 19 Sudeste 0 -- -- 55
2020-04-08 15:00:00 16.6 5 Sudeste 17 Sudoeste 0 -- -- 55
2020-04-08 14:00:00 16.4 5 Sur 19 Este 0 -- -- 58
2020-04-08 13:00:00 15.7 4 Sudeste 13 Sur 0 -- -- 54
2020-04-08 12:00:00 14.9 4 Sur 11 Sudeste 0 -- -- 54
2020-04-08 11:00:00 13.8 3 Sudoeste 13 Sudeste 0 -- -- 54
2020-04-08 10:00:00 11.1 0 Calma 4 Sudeste 0 -- -- 69
2020-04-08 09:00:00 9.5 0 Calma 5 Norte 0 -- -- 67
2020-04-08 08:00:00 8.6 0 Calma 11 Sudeste 0 -- -- 70
2020-04-08 07:00:00 8 2 Noroeste 5 Sudeste 0 -- -- 70
2020-04-08 06:00:00 8.7 2 Este 8 Sur 0 -- -- 69
2020-04-08 05:00:00 9 3 Noroeste 8 Sudeste 0 -- -- 65
2020-04-08 04:00:00 9.5 3 Sudoeste 8 Sudeste 0 -- -- 63
2020-04-08 03:00:00 9.7 2 Noroeste 9 Oeste 0 -- -- 63
2020-04-08 02:00:00 10.5 3 Oeste 11 Sudeste 0 -- -- 57
2020-04-08 01:00:00 10.6 3 Sur 10 Noroeste 0 -- -- 56
2020-04-08 00:00:00 10.8 4 Noroeste 11 Norte 0 -- -- 57
2020-04-07 23:00:00 11.5 4 Oeste 14 Sudeste 0 -- -- 54
2020-04-07 22:00:00 11.9 3 Oeste 17 Sur 0 -- -- 57
2020-04-07 21:00:00 12.8 6 Sur 20 Sudeste 0 -- -- 65
2020-04-07 20:00:00 14 6 Sur 24 Sudoeste 0 -- -- 62
2020-04-07 19:00:00 14 6 Oeste 32 Sur 0 -- -- 59
2020-04-07 18:00:00 14.7 10 Sudeste 29 Sudeste 0 -- -- 60
2020-04-07 17:00:00 15.3 6 Sudeste 27 Sur 0 -- -- 60
2020-04-07 16:00:00 14.3 10 Sudeste 27 Sudeste 0 -- -- 61
2020-04-07 15:00:00 14.6 7 Sur 36 Sudeste 0 -- -- 65
2020-04-07 14:00:00 15.2 10 Sur 31 Sudeste 0 -- -- 68
2020-04-07 13:00:00 14.4 10 Sudeste 28 Nordeste 0 -- -- 71
2020-04-07 12:00:00 12.8 8 Oeste 26 Oeste 0 -- -- 73
2020-04-07 11:00:00 12.2 6 Norte 22 Sudeste 0 -- -- 86
2020-04-07 10:00:00 11.3 5 Oeste 18 Sudoeste 2 -- -- 86
2020-04-07 09:00:00 11.7 3 Noroeste 18 Sudeste 1 -- -- 89
2020-04-07 08:00:00 11.9 5 Norte 18 Oeste 0 -- -- 87
2020-04-07 07:00:00 12 7 Sudoeste 22 Sur 0 -- -- 86
2020-04-07 06:00:00 12 6 Oeste 22 Sudoeste 0 -- -- 84
2020-04-07 05:00:00 11.9 5 Sudoeste 20 Sur 0 -- -- 83
2020-04-07 04:00:00 12.1 6 Sudoeste 33 Sur 0 -- -- 81
2020-04-07 03:00:00 12 6 Noroeste 19 Este 0 -- -- 79
2020-04-07 02:00:00 12.1 4 Oeste 23 Sur 0 -- -- 77
2020-04-07 01:00:00 11.9 5 Oeste 22 Oeste 0 -- -- 77
2020-04-07 00:00:00 11.9 8 Sudoeste 31 Sudoeste 0 -- -- 78
2020-04-06 23:00:00 12.1 7 Oeste 25 Este 0 -- -- 79
2020-04-06 22:00:00 12.3 7 Sudeste 24 Sur 0 -- -- 79
2020-04-06 21:00:00 12.4 6 Sudoeste 32 Sur 0 -- -- 78
2020-04-06 20:00:00 13 9 Sur 27 Sur 0 -- -- 74
2020-04-06 19:00:00 13.7 12 Sudeste 28 Este 0 -- -- 69
2020-04-06 18:00:00 14.3 7 Sudeste 28 Sudeste 0 -- -- 69
2020-04-06 17:00:00 15.5 13 Sudeste 31 Sudeste 0 -- -- 66
2020-04-06 16:00:00 16.2 9 Sur 29 Sudeste 0 -- -- 65
2020-04-06 15:00:00 16.1 6 Sudoeste 24 Este 0 -- -- 66
2020-04-06 14:00:00 16.4 7 Sudeste 29 Noroeste 0 -- -- 62
2020-04-06 13:00:00 16.5 6 Oeste 29 Nordeste 0 -- -- 58
2020-04-06 12:00:00 15 8 Sur 26 Sur 0 -- -- 63
2020-04-06 11:00:00 13.1 7 Sur 19 Sudeste 0 -- -- 71
2020-04-06 10:00:00 12.2 5 Sur 27 Sudeste 0 -- -- 73
2020-04-06 09:00:00 11.4 8 Sudoeste 27 Sudoeste 0 -- -- 74
2020-04-06 08:00:00 10.6 6 Noroeste 22 Este 0 -- -- 76
2020-04-06 07:00:00 10.5 5 Oeste 23 Sur 0 -- -- 76
2020-04-06 06:00:00 10.4 7 Noroeste 22 Oeste 0 -- -- 76
2020-04-06 05:00:00 10.3 7 Norte 25 Oeste 0 -- -- 78
2020-04-06 04:00:00 10.7 6 Oeste 23 Norte 0 -- -- 77
2020-04-06 03:00:00 10.7 7 Noroeste 24 Este 0 -- -- 77
2020-04-06 02:00:00 10.7 5 Norte 21 Este 0 -- -- 74
2020-04-06 01:00:00 11 5 Nordeste 24 Este 0 -- -- 66
2020-04-06 00:00:00 10.8 5 Nordeste 20 Este 0 -- -- 64
2020-04-05 23:00:00 10.9 5 Este 32 Nordeste 0 -- -- 73
2020-04-05 22:00:00 11.1 5 Sudoeste 18 Sur 0 -- -- 75
2020-04-05 21:00:00 11.4 5 Sur 29 Sudoeste 0 -- -- 76
2020-04-05 20:00:00 12.6 13 Sudeste 28 Sudeste 0 -- -- 71
2020-04-05 19:00:00 14.7 10 Sudeste 24 Este 0 -- -- 62
2020-04-05 18:00:00 16.8 8 Noroeste 28 Noroeste 0 -- -- 57
2020-04-05 17:00:00 17.2 8 Oeste 24 Noroeste 0 -- -- 54
2020-04-05 16:00:00 17.2 9 Oeste 33 Noroeste 0 -- -- 49
2020-04-05 15:00:00 17 12 Oeste 27 Sudoeste 0 -- -- 51
2020-04-05 14:00:00 16.4 7 Oeste 24 Oeste 0 -- -- 51
2020-04-05 13:00:00 15.7 9 Noroeste 28 Oeste 0 -- -- 52
2020-04-05 12:00:00 14.2 9 Oeste 30 Sudeste 0 -- -- 61
2020-04-05 11:00:00 13.3 8 Sudeste 23 Sudeste 0 -- -- 68
2020-04-05 10:00:00 11.7 6 Sur 19 Sur 0 -- -- 74
2020-04-05 09:00:00 9.9 5 Noroeste 22 Oeste 0 -- -- 82
2020-04-05 08:00:00 8.2 3 Noroeste 13 Sudeste 0 -- -- 88
2020-04-05 07:00:00 8.4 4 Sudoeste 13 Este 0 -- -- 84
2020-04-05 06:00:00 8.1 3 Oeste 9 Sudeste 0 -- -- 87
2020-04-05 05:00:00 8.8 3 Sudeste 12 Oeste 0 -- -- 83
2020-04-05 04:00:00 10.2 4 Oeste 18 Sudeste 0 -- -- 78
2020-04-05 03:00:00 10.2 4 Sudeste 15 Sudeste 0 -- -- 79
2020-04-05 02:00:00 10.5 4 Sudoeste 20 Sudeste 0 -- -- 77
2020-04-05 01:00:00 10.8 4 Oeste 22 Sudoeste 0 -- -- 75
2020-04-05 00:00:00 10.9 8 Sudeste 28 Sudeste 0 -- -- 76
2020-04-04 23:00:00 11.1 10 Sudeste 32 Sudeste 0 -- -- 74
2020-04-04 22:00:00 11.2 5 Sudeste 18 Sudeste 0 -- -- 72
2020-04-04 21:00:00 12.2 5 Sudeste 18 Este 0 -- -- 66
2020-04-04 20:00:00 14.1 3 Noroeste 27 Oeste 0 -- -- 56
2020-04-04 19:00:00 15.9 13 Noroeste 33 Noroeste 0 -- -- 49
2020-04-04 18:00:00 17 9 Sudoeste 27 Sudoeste 0 -- -- 45
2020-04-04 17:00:00 17.7 9 Sur 31 Oeste 0 -- -- 44
2020-04-04 16:00:00 18.1 8 Oeste 30 Oeste 0 -- -- 46
2020-04-04 15:00:00 18 8 Sudoeste 26 Noroeste 0 -- -- 44
2020-04-04 14:00:00 17 6 Sur 26 Noroeste 0 -- -- 52
2020-04-04 13:00:00 17 6 Sudoeste 21 Noroeste 0 -- -- 52
2020-04-04 12:00:00 16 6 Oeste 21 Sur 0 -- -- 51
2020-04-04 11:00:00 13.8 4 Sudoeste 14 Sudeste 0 -- -- 61
2020-04-04 10:00:00 8.2 0 Calma 5 Oeste 0 -- -- 92
2020-04-04 09:00:00 5.4 0 Calma 5 Oeste 0 -- -- 95
2020-04-04 08:00:00 5.1 0 Calma 3 Sur 0 -- -- 94
2020-04-04 07:00:00 5.3 0 Calma 3 Sudeste 0 -- -- 94
2020-04-04 06:00:00 5.6 0 Calma 2 Sur 0 -- -- 94
2020-04-04 05:00:00 6 0 Calma 2 Sudoeste 0 -- -- 93
2020-04-04 04:00:00 6.5 0 Calma 2 Sudeste 0 -- -- 93
2020-04-04 03:00:00 6.7 0 Calma 2 Este 0 -- -- 92
2020-04-04 02:00:00 7.1 0 Calma 2 Sur 0 -- -- 92
2020-04-04 01:00:00 7.5 0 Calma 3 Sudeste 0 -- -- 91
2020-04-04 00:00:00 8.3 0 Calma 4 Sudeste 0 -- -- 88
2020-04-03 23:00:00 8.8 0 Calma 6 Sudeste 0 -- -- 87
2020-04-03 22:00:00 9.5 0 Calma 0 Calma 0 -- -- 84
2020-04-03 21:00:00 11.3 0 Calma 2 Noroeste 0 -- -- 77
2020-04-03 20:00:00 14.7 0 Calma 14 Noroeste 0 -- -- 64
2020-04-03 19:00:00 16.5 4 Oeste 15 Oeste 0 -- -- 53
2020-04-03 18:00:00 16.7 4 Noroeste 16 Oeste 0 -- -- 54
2020-04-03 17:00:00 16.4 5 Oeste 18 Noroeste 0 -- -- 55
2020-04-03 16:00:00 15.8 6 Oeste 17 Sudoeste 0 -- -- 56
2020-04-03 15:00:00 14.8 6 Noroeste 18 Noroeste 0 -- -- 60
2020-04-03 14:00:00 12.7 7 Sudoeste 19 Oeste 0 -- -- 60
2020-04-03 13:00:00 11.1 8 Oeste 17 Oeste 0.2 -- -- 64
2020-04-03 12:00:00 10 4 Sudoeste 19 Oeste 0 -- -- 67
2020-04-03 11:00:00 8.7 6 Oeste 18 Oeste 0 -- -- 72
2020-04-03 10:00:00 7.1 4 Oeste 13 Noroeste 0 -- -- 75
2020-04-03 09:00:00 6.5 3 Nordeste 15 Noroeste 0 -- -- 77
2020-04-03 08:00:00 6 2 Este 13 Sur 0 -- -- 79
2020-04-03 07:00:00 6.5 3 Norte 11 Oeste 0 -- -- 79
2020-04-03 06:00:00 6.6 2 Nordeste 13 Nordeste 0 -- -- 80
2020-04-03 05:00:00 7 2 Nordeste 10 Oeste 0 -- -- 83
2020-04-03 04:00:00 7.9 3 Noroeste 13 Oeste 0.2 -- -- 89
2020-04-03 03:00:00 9.3 2 Sur 7 Sudeste 0 -- -- 94
2020-04-03 02:00:00 9.4 0 Calma 11 Sudeste 0.2 -- -- 93
2020-04-03 01:00:00 9.3 3 Sudeste 10 Sudeste 0 -- -- 93
2020-04-03 00:00:00 9.5 4 Sudeste 10 Sur 0 -- -- 92
2020-04-02 23:00:00 9.8 2 Sudeste 9 Sur 0 -- -- 92
2020-04-02 22:00:00 10.2 2 Sur 9 Sudeste 0.2 -- -- 92
2020-04-02 21:00:00 11.2 0 Calma 7 Sudoeste 0.4 -- -- 90
2020-04-02 20:00:00 12.2 0 Calma 6 Sur 0.2 -- -- 85
2020-04-02 19:00:00 12.6 2 Sur 6 Sudoeste 0 -- -- 82
2020-04-02 18:00:00 13.3 2 Sur 8 Sudoeste 0 -- -- 79
2020-04-02 17:00:00 12.5 0 Calma 5 Oeste 0 -- -- 84
2020-04-02 16:00:00 11.4 0 Calma 5 Sur 0 -- -- 91
2020-04-02 15:00:00 10.7 0 Calma 7 Sur 0 -- -- 93
2020-04-02 14:00:00 10.2 0 Calma 6 Sudoeste 0 -- -- 93
2020-04-02 13:00:00 9.8 2 Sudoeste 7 Sudoeste 0 -- -- 94
2020-04-02 12:00:00 9.5 0 Calma 4 Sudoeste 0 -- -- 96
2020-04-02 11:00:00 8.8 2 Sur 4 Sur 0 -- -- 96
2020-04-02 10:00:00 8.5 0 Calma 3 Norte 0 -- -- 96
2020-04-02 09:00:00 8 0 Calma 2 Sur 0.4 -- -- 96
2020-04-02 08:00:00 7.9 0 Calma 3 Sur 0.2 -- -- 96
2020-04-02 07:00:00 8 0 Calma 3 Sur 0.4 -- -- 96
2020-04-02 06:00:00 8.2 0 Calma 3 Sur 1.4 -- -- 96
2020-04-02 05:00:00 8.4 0 Calma 8 Norte 0 -- -- 95
2020-04-02 04:00:00 8.5 2 Sudeste 7 Nordeste 0.2 -- -- 96
2020-04-02 03:00:00 8.6 0 Calma 4 Nordeste 0.8 -- -- 96
2020-04-02 02:00:00 8.6 0 Calma 3 Noroeste 0.2 -- -- 96
2020-04-02 01:00:00 8.6 0 Calma 3 Sur 1 -- -- 95
2020-04-02 00:00:00 8.7 0 Calma 2 Este 0 -- -- 95
2020-04-01 23:00:00 8.8 0 Calma 18 Norte 0.4 -- -- 94
2020-04-01 22:00:00 8.8 9 Norte 18 Norte 2 -- -- 92
2020-04-01 21:00:00 9 4 Noroeste 13 Noroeste 0.8 -- -- 92
2020-04-01 20:00:00 9.1 4 Nordeste 12 Sudeste 1.2 -- -- 93
2020-04-01 19:00:00 9.3 4 Sudeste 10 Este 3.8 -- -- 95
2020-04-01 18:00:00 9.1 0 Calma 8 Norte 5.2 -- -- 95
2020-04-01 17:00:00 9.1 5 Sudoeste 17 Sudoeste 7.6 -- -- 94
2020-04-01 16:00:00 9.5 3 Oeste 15 Norte 5.4 -- -- 91
2020-04-01 15:00:00 10.2 7 Noroeste 15 Este 2.2 -- -- 87
2020-04-01 14:00:00 11.5 6 Nordeste 26 Nordeste 0.2 -- -- 76
2020-04-01 13:00:00 12.2 12 Norte 38 Nordeste 0 -- -- 72
2020-04-01 12:00:00 12.1 11 Norte 38 Nordeste 0 -- -- 71
2020-04-01 11:00:00 11.7 11 Norte 33 Nordeste 0 -- -- 74
2020-04-01 10:00:00 11.3 10 Norte 30 Sudeste 0 -- -- 76
2020-04-01 09:00:00 11 8 Noroeste 33 Este 0 -- -- 77
2020-04-01 08:00:00 11.1 9 Noroeste 34 Nordeste 0 -- -- 75
2020-04-01 07:00:00 11.1 11 Norte 31 Sudoeste 0 -- -- 74
2020-04-01 06:00:00 10.9 10 Este 24 Oeste 0 -- -- 76
2020-04-01 05:00:00 11 10 Nordeste 24 Este 0 -- -- 76
2020-04-01 04:00:00 10.3 6 Norte 22 Nordeste 0 -- -- 81
2020-04-01 03:00:00 9.7 10 Noroeste 23 Norte 0 -- -- 88
2020-04-01 02:00:00 6.8 6 Norte 17 Norte 0 -- -- 97
2020-04-01 01:00:00 5.2 4 Noroeste 10 Sur 0 -- -- 97
2020-04-01 00:00:00 4.7 0 Calma 7 Sudeste 0 -- -- 97
2020-03-31 23:00:00 4.7 2 Sur 4 Oeste 0 -- -- 96
2020-03-31 22:00:00 4.5 2 Sudeste 5 Sudeste 0.2 -- -- 96
2020-03-31 21:00:00 4.6 3 Sudeste 6 Sudoeste 0.8 -- -- 96
2020-03-31 20:00:00 4.6 0 Calma 6 Sur 2.4 -- -- 96
2020-03-31 19:00:00 4.9 2 Noroeste 5 Noroeste 1 -- -- 96
2020-03-31 18:00:00 5 2 Oeste 8 Sur 0.4 -- -- 96
2020-03-31 17:00:00 5.5 3 Sur 6 Sudoeste 2 -- -- 96
2020-03-31 16:00:00 5.4 3 Sur 9 Sudoeste 1.2 -- -- 96
2020-03-31 15:00:00 5.6 3 Sudoeste 8 Sur 0.4 -- -- 97
2020-03-31 14:00:00 4.6 3 Oeste 6 Oeste 0.8 -- -- 96
2020-03-31 13:00:00 4 2 Oeste 6 Oeste 0.4 -- -- 96
2020-03-31 12:00:00 3.8 3 Oeste 5 Oeste 0 -- -- 96
2020-03-31 11:00:00 3.5 2 Oeste 6 Sudoeste 0 -- -- 95
2020-03-31 10:00:00 3.4 2 Sudoeste 8 Sudoeste 0 -- -- 95
2020-03-31 09:00:00 3.6 0 Calma 7 Oeste 0 -- -- 94
2020-03-31 08:00:00 3.5 4 Oeste 9 Norte 0.2 -- -- 94
2020-03-31 07:00:00 3.3 3 Oeste 8 Noroeste 0.4 -- -- 93
2020-03-31 06:00:00 3.2 3 Oeste 6 Oeste 0.2 -- -- 92
2020-03-31 05:00:00 3.4 3 Oeste 8 Oeste 0.2 -- -- 91
2020-03-31 04:00:00 4 3 Oeste 7 Oeste 0 -- -- 87
2020-03-31 03:00:00 4.5 0 Calma 6 Sudoeste 0 -- -- 82
2020-03-31 02:00:00 4.7 3 Nordeste 9 Norte 0 -- -- 78
2020-03-31 01:00:00 4.9 4 Nordeste 10 Nordeste 0 -- -- 75
2020-03-31 00:00:00 4.9 3 Oeste 11 Oeste 0 -- -- 77
2020-03-30 23:00:00 4.9 0 Calma 7 Este 0 -- -- 83
2020-03-30 22:00:00 4.7 3 Sudeste 5 Sudeste 0 -- -- 81
2020-03-30 21:00:00 5.2 0 Calma 11 Este 0 -- -- 74
2020-03-30 20:00:00 4.6 4 Este 13 Este 0 -- -- 72
2020-03-30 19:00:00 4.8 2 Oeste 10 Sudeste 0 -- -- 78
2020-03-30 18:00:00 4.1 3 Oeste 12 Norte 0.2 -- -- 81
2020-03-30 17:00:00 4.3 3 Nordeste 12 Sudoeste 0.2 -- -- 75
2020-03-30 16:00:00 5 5 Sudeste 14 Sudeste 0 -- -- 63
2020-03-30 15:00:00 5.3 3 Noroeste 23 Sudoeste 0 -- -- 60
2020-03-30 14:00:00 6.5 3 Sur 19 Noroeste 0 -- -- 50
2020-03-30 13:00:00 7.1 6 Noroeste 21 Oeste 0 -- -- 52
2020-03-30 12:00:00 7 8 Sudoeste 23 Oeste 0 -- -- 55
2020-03-30 11:00:00 5.6 6 Oeste 18 Sudoeste 0 -- -- 62
2020-03-30 10:00:00 5.1 6 Sudoeste 20 Sudoeste 0 -- -- 67
2020-03-30 09:00:00 5.2 7 Noroeste 17 Noroeste 0 -- -- 69
2020-03-30 08:00:00 5.6 5 Noroeste 20 Sudoeste 0 -- -- 70
2020-03-30 07:00:00 6.4 9 Noroeste 22 Noroeste 0 -- -- 71
2020-03-30 06:00:00 7.2 6 Noroeste 23 Sur 0 -- -- 72
2020-03-30 05:00:00 7.8 7 Oeste 23 Sudoeste 0 -- -- 74
2020-03-30 04:00:00 8.3 5 Noroeste 20 Sudoeste 0 -- -- 75
2020-03-30 03:00:00 8.5 5 Oeste 17 Sur 0 -- -- 74
2020-03-30 02:00:00 8.5 3 Oeste 10 Oeste 0 -- -- 73
2020-03-30 01:00:00 8.9 2 Sur 15 Norte 0 -- -- 70
2020-03-30 00:00:00 10 4 Noroeste 16 Oeste 0 -- -- 66
2020-03-29 23:00:00 11.3 4 Oeste 21 Sudoeste 0 -- -- 62
2020-03-29 22:00:00 13 3 Sudoeste 13 Sudoeste 0 -- -- 56
2020-03-29 21:00:00 14.7 4 Sur 18 Oeste 0 -- -- 49
2020-03-29 20:00:00 16.6 5 Sudoeste 19 Sur 0 -- -- 42
2020-03-29 19:00:00 18.7 8 Oeste 22 Sudoeste 0 -- -- 37
2020-03-29 18:00:00 19.2 7 Noroeste 22 Sudoeste 0 -- -- 39
2020-03-29 17:00:00 19.2 8 Oeste 21 Noroeste 0 -- -- 38
2020-03-29 16:00:00 18.7 7 Oeste 27 Sudoeste 0 -- -- 38
2020-03-29 15:00:00 17.8 8 Oeste 23 Oeste 0 -- -- 38
2020-03-29 14:00:00 16.4 5 Oeste 22 Oeste 0 -- -- 41
2020-03-29 13:00:00 15 7 Oeste 21 Sudoeste 0 -- -- 45
2020-03-29 12:00:00 13.4 6 Sudoeste 24 Oeste 0 -- -- 52
2020-03-29 11:00:00 11.6 6 Oeste 14 Oeste 0 -- -- 59
2020-03-29 10:00:00 8.9 6 Sudoeste 18 Sur 0 -- -- 65
2020-03-29 09:00:00 7.6 4 Este 12 Este 0 -- -- 74
2020-03-29 08:00:00 6.7 4 Sur 8 Sur 0 -- -- 81
2020-03-29 07:00:00 7.2 2 Sudoeste 10 Norte 0 -- -- 78
2020-03-29 06:00:00 9.4 3 Norte 9 Nordeste 0 -- -- 69
2020-03-29 05:00:00 10.7 3 Este 14 Norte 0 -- -- 62
2020-03-29 03:00:00 11.1 4 Nordeste 12 Norte 0 -- -- 61
2020-03-29 01:00:00 11.4 5 Nordeste 13 Este 0 -- -- 59
2020-03-29 00:00:00 9.3 2 Sur 6 Nordeste 0 -- -- 78
2020-03-28 23:00:00 9.5 0 Calma 4 Sudeste 0 -- -- 77
2020-03-28 22:00:00 9.8 0 Calma 2 Sudoeste 0 -- -- 74
2020-03-28 21:00:00 10.4 0 Calma 4 Sudoeste 0 -- -- 69
2020-03-28 20:00:00 12 0 Calma 5 Este 0 -- -- 65
2020-03-28 19:00:00 15.4 2 Sudeste 10 Sur 0 -- -- 55
2020-03-28 18:00:00 17.7 4 Oeste 14 Sudoeste 0 -- -- 43
2020-03-28 17:00:00 17.8 4 Sur 18 Norte 0 -- -- 43
2020-03-28 16:00:00 17.2 4 Sudoeste 17 Sudoeste 0 -- -- 43
2020-03-28 15:00:00 16.7 7 Oeste 17 Sudoeste 0 -- -- 46
2020-03-28 14:00:00 15.5 5 Sudoeste 15 Noroeste 0 -- -- 49
2020-03-28 13:00:00 14.5 10 Oeste 24 Sudoeste 0 -- -- 50
2020-03-28 12:00:00 14 5 Noroeste 16 Noroeste 0 -- -- 53
2020-03-28 11:00:00 12.4 6 Norte 16 Noroeste 0 -- -- 58
2020-03-28 10:00:00 10.8 2 Oeste 7 Oeste 0 -- -- 66
2020-03-28 09:00:00 9.5 2 Sudoeste 7 Noroeste 0 -- -- 74
2020-03-28 08:00:00 8.7 3 Noroeste 13 Norte 0 -- -- 71
2020-03-28 07:00:00 8 6 Norte 13 Norte 0 -- -- 77
2020-03-28 06:00:00 7.3 0 Calma 5 Este 0 -- -- 87
2020-03-28 05:00:00 7.5 0 Calma 6 Sur 0 -- -- 85
2020-03-28 04:00:00 7.8 0 Calma 5 Este 0 -- -- 84
2020-03-28 03:00:00 8 0 Calma 6 Norte 0 -- -- 83
2020-03-28 02:00:00 8.2 0 Calma 4 Sudeste 0 -- -- 81
2020-03-28 01:00:00 8.5 0 Calma 7 Oeste 0 -- -- 77
2020-03-28 00:00:00 8.8 5 Sudoeste 17 Sudeste 0 -- -- 74
2020-03-27 23:00:00 9.3 6 Este 14 Sudeste 0 -- -- 70
2020-03-27 22:00:00 10 5 Sudeste 17 Sudeste 0 -- -- 71
2020-03-27 21:00:00 10.2 0 Calma 8 Sudeste 0 -- -- 65
2020-03-27 20:00:00 11.1 3 Sur 6 Sudeste 0 -- -- 54
2020-03-27 19:00:00 13.3 3 Norte 8 Noroeste 0 -- -- 52
2020-03-27 18:00:00 14.7 4 Oeste 14 Oeste 0 -- -- 40
2020-03-27 17:00:00 14.3 3 Sur 17 Sudoeste 0 -- -- 43
2020-03-27 16:00:00 14.3 5 Sudoeste 22 Oeste 0 -- -- 47
2020-03-27 15:00:00 13.6 7 Oeste 23 Oeste 0 -- -- 50
2020-03-27 14:00:00 13.2 6 Oeste 22 Noroeste 0 -- -- 51
2020-03-27 13:00:00 11.7 7 Nordeste 27 Noroeste 0 -- -- 58
2020-03-27 12:00:00 9.2 8 Sudoeste 18 Sudoeste 0 -- -- 72
2020-03-27 11:00:00 7.2 4 Sur 12 Sudoeste 0 -- -- 86
2020-03-27 10:00:00 6.2 6 Sudeste 14 Sudeste 0 -- -- 91
2020-03-27 09:00:00 2.5 2 Sudeste 5 Sudeste 0 -- -- 97
2020-03-27 08:00:00 0.7 0 Calma 3 Sur 0 -- -- 95
2020-03-27 07:00:00 0.9 0 Calma 4 Sudeste 0 -- -- 95
2020-03-27 06:00:00 1.1 0 Calma 2 Nordeste 0 -- -- 94
2020-03-27 05:00:00 1.4 0 Calma 4 Sur 0 -- -- 93
2020-03-27 04:00:00 2 0 Calma 5 Sudeste 0 -- -- 93
2020-03-27 03:00:00 2.5 0 Calma 5 Sudeste 0 -- -- 92
2020-03-27 02:00:00 3.5 0 Calma 5 Nordeste 0 -- -- 91
2020-03-27 01:00:00 4.3 2 Este 6 Este 0 -- -- 89
2020-03-27 00:00:00 4.7 0 Calma 7 Norte 0 -- -- 89
2020-03-26 23:00:00 4.3 0 Calma 6 Noroeste 0 -- -- 89
2020-03-26 22:00:00 5.3 3 Este 10 Norte 0 -- -- 86
2020-03-26 21:00:00 5.4 2 Norte 13 Norte 0 -- -- 85
2020-03-26 20:00:00 5.5 6 Norte 12 Nordeste 0 -- -- 84
2020-03-26 19:00:00 6.2 3 Sur 8 Sudoeste 0 -- -- 84
2020-03-26 18:00:00 6.4 4 Nordeste 22 Nordeste 0 -- -- 82
2020-03-26 17:00:00 5.9 6 Norte 26 Sudeste 1.4 -- -- 82
2020-03-26 16:00:00 6.3 5 Sur 24 Noroeste 3.8 -- -- 75
2020-03-26 15:00:00 10.6 5 Sudeste 18 Sudeste 0.2 -- -- 67
2020-03-26 14:00:00 13.3 6 Sudeste 19 Sudeste 0 -- -- 53
2020-03-26 13:00:00 12.2 6 Norte 16 Oeste 0 -- -- 53
2020-03-26 12:00:00 11.4 4 Sur 14 Noroeste 0 -- -- 59
2020-03-26 11:00:00 9.3 3 Nordeste 15 Oeste 0 -- -- 67
2020-03-26 10:00:00 7.3 4 Sudoeste 10 Norte 0 -- -- 80
2020-03-26 09:00:00 5.3 3 Sudoeste 12 Sudoeste 0 -- -- 89
2020-03-26 08:00:00 5.3 4 Oeste 10 Sudoeste 0 -- -- 91
2020-03-26 07:00:00 5.4 3 Oeste 9 Nordeste 0 -- -- 87
2020-03-26 06:00:00 6 4 Sudoeste 15 Noroeste 0 -- -- 84
2020-03-26 05:00:00 6.4 3 Norte 8 Este 0 -- -- 81
2020-03-26 04:00:00 6.3 3 Norte 7 Norte 0 -- -- 82
2020-03-26 03:00:00 6.3 0 Calma 6 Sudoeste 0 -- -- 84
2020-03-26 02:00:00 6.3 2 Este 5 Este 0 -- -- 83
2020-03-26 01:00:00 6.4 0 Calma 4 Sudoeste 0 -- -- 82
2020-03-26 00:00:00 6.6 0 Calma 11 Sudeste 0 -- -- 77
2020-03-25 23:00:00 6.6 4 Sudeste 13 Sudeste 0 -- -- 76
2020-03-25 22:00:00 6.7 5 Sudeste 9 Sudeste 0 -- -- 76
2020-03-25 21:00:00 7 4 Sur 13 Sudeste 0 -- -- 73
2020-03-25 20:00:00 7.1 4 Sudeste 12 Sudeste 0 -- -- 72
2020-03-25 19:00:00 8.1 4 Sur 10 Oeste 0 -- -- 69
2020-03-25 18:00:00 8.7 3 Sudoeste 16 Sudeste 0 -- -- 66
2020-03-25 17:00:00 9 5 Sudeste 14 Sudoeste 0 -- -- 66
2020-03-25 16:00:00 9.4 5 Sur 12 Oeste 0 -- -- 63
2020-03-25 15:00:00 9 6 Noroeste 15 Oeste 0 -- -- 64
2020-03-25 14:00:00 8.2 3 Oeste 17 Oeste 0 -- -- 66
2020-03-25 13:00:00 8 5 Noroeste 13 Oeste 0 -- -- 69
2020-03-25 12:00:00 6.7 3 Noroeste 10 Noroeste 0 -- -- 76
2020-03-25 11:00:00 5.7 2 Oeste 15 Nordeste 0 -- -- 78
2020-03-25 10:00:00 5.3 4 Norte 14 Norte 0.6 -- -- 78
2020-03-25 09:00:00 5.3 5 Noroeste 22 Nordeste 0.2 -- -- 71
2020-03-25 08:00:00 5 7 Norte 23 Este 0 -- -- 74
2020-03-25 07:00:00 5.6 4 Norte 17 Nordeste 0 -- -- 77
2020-03-25 06:00:00 6.4 5 Norte 16 Noroeste 0 -- -- 72
2020-03-25 05:00:00 6.8 6 Norte 15 Nordeste 0 -- -- 72
2020-03-25 04:00:00 7 6 Norte 13 Nordeste 0 -- -- 72
2020-03-25 03:00:00 7.2 5 Norte 15 Norte 0 -- -- 72
2020-03-25 02:00:00 7.3 4 Noroeste 13 Noroeste 0 -- -- 78
2020-03-25 01:00:00 7.4 4 Norte 18 Sudoeste 0 -- -- 78
2020-03-25 00:00:00 8.1 9 Noroeste 24 Nordeste 0 -- -- 75
2020-03-24 23:00:00 8.4 6 Noroeste 19 Norte 0 -- -- 76
2020-03-24 22:00:00 8.5 7 Norte 17 Norte 0 -- -- 78
2020-03-24 21:00:00 8.7 5 Oeste 26 Sudoeste 0 -- -- 81
2020-03-24 20:00:00 9 6 Noroeste 24 Sur 0 -- -- 83
2020-03-24 19:00:00 9.2 6 Noroeste 23 Sur 0 -- -- 81
2020-03-24 18:00:00 10.3 8 Sudoeste 24 Noroeste 0 -- -- 75
2020-03-24 17:00:00 12.3 9 Sudoeste 26 Sur 0 -- -- 64
2020-03-24 16:00:00 11.4 8 Sur 26 Sudeste 0 -- -- 65
2020-03-24 15:00:00 11.8 8 Sudeste 21 Sudeste 0 -- -- 69
2020-03-24 14:00:00 12.3 7 Sudeste 19 Este 0 -- -- 67
2020-03-24 13:00:00 12.5 6 Sudoeste 29 Sudoeste 0 -- -- 63
2020-03-24 12:00:00 13.3 5 Sur 25 Sudoeste 0 -- -- 61
2020-03-24 11:00:00 13.6 7 Sudeste 23 Sur 0 -- -- 59
2020-03-24 10:00:00 12.5 7 Norte 20 Noroeste 0 -- -- 59
2020-03-24 09:00:00 10.5 5 Noroeste 15 Noroeste 0 -- -- 67
2020-03-24 08:00:00 9.8 6 Noroeste 22 Norte 0 -- -- 77
2020-03-24 07:00:00 9.6 5 Noroeste 19 Sudeste 0 -- -- 77
2020-03-24 06:00:00 9.8 4 Nordeste 19 Este 0 -- -- 75
2020-03-24 05:00:00 9.9 4 Noroeste 25 Norte 0 -- -- 76
2020-03-24 04:00:00 10.2 8 Norte 23 Nordeste 0 -- -- 74
2020-03-24 03:00:00 9.7 8 Norte 22 Noroeste 0 -- -- 83
2020-03-24 02:00:00 10.3 5 Norte 19 Noroeste 0 -- -- 84
2020-03-24 01:00:00 10.5 7 Noroeste 21 Este 0 -- -- 83
2020-03-24 00:00:00 10.9 6 Sudeste 21 Oeste 0 -- -- 80
2020-03-23 23:00:00 10.6 5 Este 14 Sudeste 0 -- -- 80
2020-03-23 22:00:00 10.5 3 Norte 12 Noroeste 0 -- -- 82
2020-03-23 21:00:00 11.8 5 Sudeste 23 Sur 0 -- -- 77
2020-03-23 20:00:00 11.8 4 Norte 23 Sudeste 0 -- -- 81
2020-03-23 19:00:00 12.6 7 Sudeste 15 Noroeste 0 -- -- 79
2020-03-23 18:00:00 12.6 8 Noroeste 16 Oeste 0 -- -- 82
2020-03-23 17:00:00 12.8 7 Norte 14 Noroeste 0.6 -- -- 86
2020-03-23 16:00:00 13.2 6 Norte 15 Nordeste 0.4 -- -- 83
2020-03-23 15:00:00 13.8 4 Norte 22 Sudeste 0 -- -- 78
2020-03-23 14:00:00 13.6 6 Noroeste 13 Sudeste 2.4 -- -- 86
2020-03-23 13:00:00 14 5 Oeste 18 Nordeste 0 -- -- 74
2020-03-23 12:00:00 14.4 4 Norte 18 Sudeste 0 -- -- 74
2020-03-23 11:00:00 13.4 6 Norte 23 Norte 0 -- -- 79
2020-03-23 10:00:00 12.1 5 Oeste 17 Norte 0.2 -- -- 90
2020-03-23 09:00:00 9.8 2 Noroeste 6 Sudeste 0.4 -- -- 95
2020-03-23 08:00:00 8.5 2 Sudeste 6 Noroeste 0 -- -- 95
2020-03-23 07:00:00 8.5 0 Calma 5 Norte 0 -- -- 94
2020-03-23 06:00:00 8.8 3 Sudeste 5 Sudeste 0 -- -- 94
2020-03-23 05:00:00 9.4 0 Calma 7 Nordeste 0 -- -- 93
2020-03-23 04:00:00 9.7 0 Calma 14 Norte 0.2 -- -- 92
2020-03-23 03:00:00 10 0 Calma 7 Este 0 -- -- 89
2020-03-23 02:00:00 10.3 3 Noroeste 14 Nordeste 0 -- -- 84
2020-03-23 01:00:00 10.3 7 Norte 19 Norte 0 -- -- 85
2020-03-23 00:00:00 10.4 7 Norte 18 Nordeste 0 -- -- 86
2020-03-22 23:00:00 10.1 5 Norte 21 Sudeste 0.4 -- -- 86
2020-03-22 22:00:00 10.6 5 Norte 26 Nordeste 2.2 -- -- 86
2020-03-22 21:00:00 11.6 7 Noroeste 17 Norte 0.4 -- -- 84
2020-03-22 20:00:00 12 8 Sudoeste 21 Sudoeste 0 -- -- 80
2020-03-22 19:00:00 12.2 5 Sudoeste 22 Sudeste 0 -- -- 78
2020-03-22 18:00:00 12.7 7 Sudeste 18 Sudeste 0 -- -- 75
2020-03-22 17:00:00 12.6 5 Sur 16 Sudeste 0 -- -- 76
2020-03-22 16:00:00 12 5 Sudeste 21 Sudeste 0 -- -- 79
2020-03-22 15:00:00 12.4 7 Sur 18 Sudeste 0 -- -- 77
2020-03-22 14:00:00 12.6 9 Sudeste 30 Sudeste 0 -- -- 76
2020-03-22 13:00:00 14.4 5 Noroeste 21 Sudeste 0 -- -- 66
2020-03-22 12:00:00 15 6 Este 14 Sudeste 0 -- -- 61
2020-03-22 11:00:00 13.9 5 Sur 15 Este 0 -- -- 66
2020-03-22 10:00:00 12.5 3 Sudeste 12 Sudeste 0 -- -- 73
2020-03-22 09:00:00 7 2 Noroeste 4 Oeste 0 -- -- 92
2020-03-22 08:00:00 5.6 0 Calma 3 Sur 0 -- -- 92
2020-03-22 07:00:00 5.3 0 Calma 4 Sudeste 0 -- -- 91
2020-03-22 06:00:00 5.1 0 Calma 0 Calma 0 -- -- 90
2020-03-22 05:00:00 5.4 0 Calma 4 Sur 0 -- -- 88
2020-03-22 04:00:00 6 0 Calma 4 Sudeste 0 -- -- 86
2020-03-22 03:00:00 6.3 0 Calma 3 Sur 0 -- -- 85
2020-03-22 02:00:00 6.7 0 Calma 6 Sudeste 0 -- -- 83
2020-03-22 01:00:00 7.6 2 Sudeste 8 Sudeste 0 -- -- 79
2020-03-22 00:00:00 8.5 3 Sudeste 12 Oeste 0 -- -- 76
2020-03-21 23:00:00 9.6 4 Noroeste 13 Sur 0 -- -- 74
2020-03-21 22:00:00 10.4 5 Sudoeste 14 Sudoeste 0 -- -- 73
2020-03-21 21:00:00 10.8 8 Sudoeste 18 Sudoeste 0 -- -- 78
2020-03-21 20:00:00 11.1 5 Sudoeste 22 Sudeste 0 -- -- 78
2020-03-21 19:00:00 12.4 10 Sudeste 23 Sudeste 0 -- -- 72
2020-03-21 18:00:00 15.3 7 Sur 21 Sudoeste 0 -- -- 59
2020-03-21 17:00:00 16.5 7 Sur 19 Sur 0 -- -- 54
2020-03-21 16:00:00 16.9 5 Sudoeste 18 Oeste 0 -- -- 51
2020-03-21 15:00:00 17.5 9 Sur 18 Sudeste 0 -- -- 49
2020-03-21 14:00:00 16.8 6 Sudoeste 22 Oeste 0 -- -- 50
2020-03-21 13:00:00 15 3 Oeste 17 Sur 0 -- -- 54
2020-03-21 12:00:00 15.9 6 Oeste 17 Sudoeste 0 -- -- 52
2020-03-21 11:00:00 14 7 Oeste 15 Oeste 0 -- -- 55
2020-03-21 10:00:00 11.3 0 Calma 5 Sur 0 -- -- 61
2020-03-21 09:00:00 5.2 0 Calma 3 Sur 0 -- -- 87
2020-03-21 08:00:00 3.8 0 Calma 2 Oeste 0 -- -- 86
2020-03-21 07:00:00 3.8 0 Calma 2 Sudeste 0 -- -- 85
2020-03-21 06:00:00 4.1 0 Calma 3 Sur 0 -- -- 83
2020-03-21 05:00:00 4.9 0 Calma 6 Sudeste 0 -- -- 80
2020-03-21 04:00:00 5.1 0 Calma 5 Este 0 -- -- 80
2020-03-21 03:00:00 5.3 0 Calma 6 Sudeste 0 -- -- 81
2020-03-21 02:00:00 5.9 0 Calma 9 Sudeste 0 -- -- 80
2020-03-21 01:00:00 6.8 3 Nordeste 10 Sudeste 0 -- -- 78
2020-03-21 00:00:00 7.7 2 Sudeste 10 Noroeste 0 -- -- 76
2020-03-20 23:00:00 9.2 3 Noroeste 17 Norte 0 -- -- 72
2020-03-20 22:00:00 9.9 7 Oeste 21 Oeste 0 -- -- 76
2020-03-20 21:00:00 10.3 5 Norte 21 Sudeste 0 -- -- 77
2020-03-20 20:00:00 11.1 8 Sudeste 21 Sudeste 0 -- -- 75
2020-03-20 19:00:00 12.2 10 Sudeste 32 Sudeste 0 -- -- 71
2020-03-20 18:00:00 14.2 9 Sudeste 30 Este 0 -- -- 62
2020-03-20 17:00:00 15.2 5 Sudoeste 22 Sudeste 0 -- -- 58
2020-03-20 16:00:00 16.5 10 Sudeste 28 Noroeste 0 -- -- 52
2020-03-20 15:00:00 16.6 15 Noroeste 27 Noroeste 0 -- -- 50
2020-03-20 14:00:00 16.6 5 Oeste 24 Noroeste 0 -- -- 51
2020-03-20 13:00:00 16.3 8 Noroeste 25 Noroeste 0 -- -- 49
2020-03-20 12:00:00 15.3 8 Oeste 22 Noroeste 0 -- -- 53
2020-03-20 11:00:00 14.2 5 Norte 15 Nordeste 0 -- -- 64
2020-03-20 10:00:00 12.7 5 Norte 19 Noroeste 0 -- -- 68
2020-03-20 09:00:00 10.4 6 Noroeste 11 Noroeste 0 -- -- 78
2020-03-20 08:00:00 9.6 5 Norte 14 Oeste 0 -- -- 79
2020-03-20 07:00:00 9.6 6 Norte 14 Oeste 0 -- -- 79
2020-03-20 06:00:00 8.8 6 Norte 18 Norte 0 -- -- 80
2020-03-20 05:00:00 8.7 8 Norte 22 Norte 0 -- -- 79
2020-03-20 04:00:00 8.5 7 Norte 17 Norte 0 -- -- 81
2020-03-20 03:00:00 8.5 8 Norte 18 Norte 0 -- -- 81
2020-03-20 02:00:00 8.8 8 Norte 20 Nordeste 0 -- -- 79
2020-03-20 01:00:00 8.9 8 Noroeste 22 Norte 0 -- -- 80
2020-03-20 00:00:00 9 7 Oeste 19 Sudeste 0 -- -- 76
2020-03-19 23:00:00 9.7 8 Oeste 21 Noroeste 0 -- -- 68
2020-03-19 22:00:00 10 7 Oeste 23 Noroeste 0 -- -- 66
2020-03-19 21:00:00 10.6 9 Oeste 23 Noroeste 0 -- -- 73
2020-03-19 20:00:00 11.2 8 Sudoeste 26 Noroeste 0 -- -- 74
2020-03-19 19:00:00 12.7 8 Sudoeste 26 Noroeste 0 -- -- 67
2020-03-19 18:00:00 14.6 8 Sudoeste 23 Este 0 -- -- 60
2020-03-19 17:00:00 16.3 7 Sur 26 Sudeste 0 -- -- 56
2020-03-19 16:00:00 16.9 8 Sudeste 22 Sudeste 0 -- -- 54
2020-03-19 15:00:00 16.4 8 Sudeste 28 Este 0 -- -- 57
2020-03-19 14:00:00 15.4 7 Sudeste 27 Noroeste 0 -- -- 60
2020-03-19 13:00:00 15.9 6 Oeste 26 Sudeste 0 -- -- 59
2020-03-19 12:00:00 15.4 5 Sur 17 Oeste 0 -- -- 58
2020-03-19 11:00:00 14.5 6 Sudoeste 16 Sudoeste 0 -- -- 63
2020-03-19 10:00:00 12.4 5 Sudoeste 11 Sudoeste 0 -- -- 77
2020-03-19 09:00:00 8.9 0 Calma 0 Calma 0 -- -- 96
2020-03-19 08:00:00 7.4 0 Calma 0 Calma 0 -- -- 96
2020-03-19 07:00:00 6.7 0 Calma 0 Calma 0 -- -- 95
2020-03-19 06:00:00 6.8 0 Calma 0 Calma 0 -- -- 95
2020-03-19 05:00:00 6.7 0 Calma 0 Calma 0 -- -- 95
2020-03-19 04:00:00 6.6 0 Calma -- -- 0 -- -- 94
2020-03-19 03:00:00 6.9 0 Calma 0 Calma 0 -- -- 94
2020-03-19 02:00:00 7 0 Calma 0 Calma 0 -- -- 92
2020-03-19 01:00:00 7.4 0 Calma 0 Calma 0 -- -- 92
2020-03-19 00:00:00 7.8 0 Calma 0 Calma 0 -- -- 90
2020-03-18 23:00:00 8.5 0 Calma 0 Calma 0 -- -- 88
2020-03-18 22:00:00 9.2 0 Calma 0 Calma 0 -- -- 86
2020-03-18 21:00:00 10.1 0 Calma 2 Noroeste 0 -- -- 83
2020-03-18 20:00:00 11.5 0 Calma 3 Sudeste 0 -- -- 79
2020-03-18 19:00:00 14.3 0 Calma 6 Sudoeste 0 -- -- 72
2020-03-18 18:00:00 16.3 2 Sudoeste 13 Noroeste 0 -- -- 60
2020-03-18 17:00:00 16.7 8 Noroeste 17 Sudoeste 0 -- -- 59
2020-03-18 16:00:00 16.6 3 Sudoeste 9 Sudoeste 0 -- -- 63
2020-03-18 15:00:00 17.3 4 Sur 12 Oeste 0 -- -- 62
2020-03-18 14:00:00 15.8 2 Noroeste 14 Oeste 0 -- -- 67
2020-03-18 13:00:00 16.5 5 Oeste 12 Oeste 0 -- -- 63
2020-03-18 12:00:00 15.7 3 Oeste 8 Sudoeste 0 -- -- 68
2020-03-18 11:00:00 13.1 2 Sur 6 Noroeste 0 -- -- 79
2020-03-18 10:00:00 10.9 0 Calma 2 Oeste 0 -- -- 86
2020-03-18 09:00:00 9 0 Calma 3 Sudeste 0 -- -- 90
2020-03-18 08:00:00 8.2 0 Calma 3 Sudeste 0 -- -- 91
2020-03-18 07:00:00 8 0 Calma 5 Oeste 0 -- -- 90
2020-03-18 06:00:00 8.3 4 Sudeste 7 Sudeste 0 -- -- 90
2020-03-18 05:00:00 8.8 0 Calma 6 Norte 0 -- -- 87
2020-03-18 04:00:00 9.3 0 Calma 3 Sudeste 0 -- -- 88
2020-03-18 03:00:00 9.6 0 Calma 5 Sudeste 0 -- -- 87
2020-03-18 02:00:00 9.8 0 Calma 6 Sudeste 0 -- -- 85
2020-03-18 01:00:00 9.9 0 Calma 4 Sudeste 0 -- -- 84
2020-03-18 00:00:00 10.3 3 Nordeste 6 Sudeste 0 -- -- 81
2020-03-17 23:00:00 10.8 0 Calma 6 Sudeste 0 -- -- 79
2020-03-17 22:00:00 12.2 4 Norte 9 Norte 0 -- -- 71
2020-03-17 21:00:00 12.5 4 Norte 9 Norte 0 -- -- 74
2020-03-17 20:00:00 13.4 4 Norte 11 Nordeste 0 -- -- 73
2020-03-17 19:00:00 15 0 Calma 8 Sudeste 0 -- -- 71
2020-03-17 18:00:00 16 3 Sudeste 15 Sur 0 -- -- 63
2020-03-17 17:00:00 17.1 10 Norte 22 Nordeste 0 -- -- 61
2020-03-17 16:00:00 16.7 5 Oeste 14 Este 0 -- -- 64
2020-03-17 15:00:00 16.7 8 Sudoeste 21 Sudoeste 0 -- -- 64
2020-03-17 14:00:00 16.1 7 Noroeste 23 Nordeste 0 -- -- 69
2020-03-17 13:00:00 14.7 7 Norte 32 Sudeste 0 -- -- 71
2020-03-17 12:00:00 14.5 8 Norte 29 Este 0 -- -- 74
2020-03-17 11:00:00 13.7 8 Nordeste 21 Sudeste 0.8 -- -- 80
2020-03-17 10:00:00 14 7 Noroeste 17 Norte 0 -- -- 80
2020-03-17 09:00:00 13.7 6 Norte 24 Nordeste 0 -- -- 80
2020-03-17 08:00:00 13.5 8 Norte 33 Este 0 -- -- 80
2020-03-17 07:00:00 13.3 7 Norte 30 Sur 0 -- -- 79
2020-03-17 06:00:00 13 7 Nordeste 29 Este 0 -- -- 79
2020-03-17 05:00:00 12.9 8 Nordeste 33 Nordeste 0 -- -- 78
2020-03-17 04:00:00 12.6 8 Noroeste 32 Noroeste 0 -- -- 80
2020-03-17 03:00:00 12.8 9 Norte 28 Nordeste 0 -- -- 80
2020-03-17 02:00:00 12.8 9 Noroeste 41 Nordeste 0 -- -- 81
2020-03-17 01:00:00 12.5 12 Norte 36 Nordeste 0 -- -- 84
2020-03-17 00:00:00 12.5 10 Norte 36 Nordeste 0.2 -- -- 85
2020-03-16 23:00:00 12.4 12 Nordeste 33 Nordeste 0 -- -- 85
2020-03-16 22:00:00 12.6 12 Nordeste 41 Nordeste 0 -- -- 84
2020-03-16 21:00:00 13.1 8 Nordeste 35 Sudeste 0 -- -- 81
2020-03-16 20:00:00 13.4 9 Norte 42 Nordeste 0.2 -- -- 78
2020-03-16 19:00:00 13.4 12 Norte 31 Nordeste 0 -- -- 77
2020-03-16 18:00:00 13.8 7 Nordeste 28 Sudeste 0 -- -- 82
2020-03-16 17:00:00 13 4 Norte 22 Este 0.2 -- -- 87
2020-03-16 16:00:00 13.6 9 Norte 32 Norte 0 -- -- 87
2020-03-16 15:00:00 13 11 Norte 36 Sudeste 3 -- -- 88
2020-03-16 14:00:00 13.4 9 Norte 32 Este 0 -- -- 83
2020-03-16 13:00:00 13.7 9 Norte 35 Nordeste 0 -- -- 79
2020-03-16 12:00:00 14.1 12 Norte 40 Norte 0 -- -- 71
2020-03-16 11:00:00 12.4 10 Nordeste 39 Sudeste 0 -- -- 75
2020-03-16 10:00:00 11.7 13 Noroeste 42 Este 0 -- -- 75
2020-03-16 09:00:00 11 10 Sudoeste 37 Este 0 -- -- 70
2020-03-16 08:00:00 10.9 11 Norte 30 Nordeste 0 -- -- 78
2020-03-16 07:00:00 11.7 8 Noroeste 26 Sudoeste 0 -- -- 81
2020-03-16 06:00:00 11.8 11 Oeste 25 Sudoeste 0 -- -- 79
2020-03-16 05:00:00 11.6 10 Oeste 28 Oeste 0 -- -- 79
2020-03-16 04:00:00 11.3 9 Noroeste 28 Oeste 0 -- -- 79
2020-03-16 03:00:00 11.3 14 Sur 37 Sudoeste 0.2 -- -- 82
2020-03-16 02:00:00 11.6 12 Sur 30 Sudeste 0 -- -- 84
2020-03-16 01:00:00 11.6 11 Norte 39 Este 0.6 -- -- 85
2020-03-16 00:00:00 11.6 5 Norte 40 Sudeste 0.6 -- -- 90
2020-03-15 23:00:00 11.9 13 Sudeste 55 Este 0 -- -- 86
2020-03-15 22:00:00 12.3 17 Sudeste 50 Sudeste 0 -- -- 80
2020-03-15 21:00:00 12.2 15 Sudeste 41 Sudeste 0 -- -- 83
2020-03-15 20:00:00 12.2 14 Sudeste 46 Sur 0 -- -- 81
2020-03-15 19:00:00 12.3 14 Sur 46 Sudeste 0 -- -- 76
2020-03-15 18:00:00 13.4 12 Sudoeste 46 Sudeste 0 -- -- 74
2020-03-15 17:00:00 14.4 14 Oeste 41 Sudoeste 0 -- -- 71
2020-03-15 16:00:00 15.2 12 Sur 42 Sur 0 -- -- 68
2020-03-15 15:00:00 15.7 13 Sudeste 38 Sudeste 0 -- -- 67
2020-03-15 14:00:00 15.5 13 Sur 44 Este 0 -- -- 68
2020-03-15 13:00:00 15.5 15 Sudeste 44 Sudeste 0 -- -- 66
2020-03-15 12:00:00 15.4 12 Sur 33 Sudeste 0 -- -- 66
2020-03-15 11:00:00 13.7 13 Sudeste 34 Este 0 -- -- 72
2020-03-15 10:00:00 12.6 10 Sudeste 36 Sudoeste 0 -- -- 75
2020-03-15 09:00:00 11.4 8 Sudoeste 29 Sudeste 0 -- -- 74
2020-03-15 08:00:00 10.7 7 Sudeste 25 Sudeste 0 -- -- 74
2020-03-15 07:00:00 8.5 4 Sur 13 Sur 0 -- -- 86
2020-03-15 06:00:00 8 3 Noroeste 15 Sur 0 -- -- 87
2020-03-15 05:00:00 7.2 3 Sudoeste 8 Sur 0 -- -- 88
2020-03-15 04:00:00 7.4 0 Calma 4 Sur 0 -- -- 84
2020-03-15 03:00:00 8.1 0 Calma 5 Sur 0 -- -- 80
2020-03-15 02:00:00 8.6 2 Sudeste 5 Norte 0 -- -- 77
2020-03-15 01:00:00 8.5 2 Nordeste 5 Noroeste 0 -- -- 75
2020-03-15 00:00:00 8.9 0 Calma 5 Sudoeste 0 -- -- 73
2020-03-14 23:00:00 9.3 0 Calma 3 Sudoeste 0 -- -- 70
2020-03-14 22:00:00 9.9 0 Calma 5 Este 0 -- -- 67
2020-03-14 21:00:00 11 0 Calma 5 Norte 0 -- -- 62
2020-03-14 20:00:00 12.2 0 Calma 4 Nordeste 0 -- -- 53
2020-03-14 19:00:00 16.3 0 Calma 6 Oeste 0 -- -- 43
2020-03-14 18:00:00 19.3 4 Sur 13 Noroeste 0 -- -- 31
2020-03-14 17:00:00 19.7 5 Oeste 16 Sudoeste 0 -- -- 32
2020-03-14 16:00:00 18.9 6 Sudoeste 17 Noroeste 0 -- -- 35
2020-03-14 15:00:00 18.2 6 Oeste 17 Noroeste 0 -- -- 39
2020-03-14 14:00:00 17 6 Sudoeste 20 Sur 0 -- -- 48
2020-03-14 13:00:00 15.9 6 Noroeste 18 Noroeste 0 -- -- 52
2020-03-14 12:00:00 14.2 7 Noroeste 21 Oeste 0 -- -- 57
2020-03-14 11:00:00 12.3 6 Oeste 15 Sudoeste 0 -- -- 63
2020-03-14 10:00:00 10.3 6 Sudoeste 23 Noroeste 0 -- -- 68
2020-03-14 09:00:00 7.8 4 Sur 16 Sudeste 0 -- -- 77
2020-03-14 08:00:00 7.1 4 Nordeste 9 Este 0 -- -- 80
2020-03-14 07:00:00 7.7 3 Sudeste 13 Nordeste 0 -- -- 78
2020-03-14 06:00:00 8.4 4 Norte 11 Nordeste 0 -- -- 76
2020-03-14 05:00:00 9.6 3 Sur 12 Sudoeste 0 -- -- 73
2020-03-14 04:00:00 10.3 2 Nordeste 8 Noroeste 0 -- -- 75
2020-03-14 03:00:00 10.3 3 Sudoeste 10 Sur 0 -- -- 77
2020-03-14 02:00:00 9.9 3 Sudoeste 8 Oeste 0 -- -- 85
2020-03-14 01:00:00 9.8 2 Sudeste 5 Este 0 -- -- 87
2020-03-14 00:00:00 10.2 0 Calma 3 Sudeste 0 -- -- 85
2020-03-13 23:00:00 11.2 0 Calma 3 Sudeste 0 -- -- 82
2020-03-13 22:00:00 12 0 Calma 2 Sur 0 -- -- 80
2020-03-13 21:00:00 12.7 0 Calma 4 Sur 0 -- -- 77
2020-03-13 20:00:00 13.7 0 Calma 4 Este 0 -- -- 75
2020-03-13 19:00:00 15.4 0 Calma 9 Sudeste 0 -- -- 68
2020-03-13 18:00:00 17.5 5 Sur 15 Oeste 0 -- -- 62
2020-03-13 17:00:00 18.6 5 Sudoeste 17 Noroeste 0 -- -- 57
2020-03-13 16:00:00 19.2 6 Sudoeste 19 Oeste 0 -- -- 55
2020-03-13 15:00:00 18.8 3 Oeste 14 Noroeste 0 -- -- 56
2020-03-13 14:00:00 18.4 3 Sur 15 Oeste 0 -- -- 55
2020-03-13 13:00:00 18.4 4 Oeste 16 Noroeste 0 -- -- 57
2020-03-13 12:00:00 16.5 5 Sudoeste 18 Noroeste 0 -- -- 61
2020-03-13 11:00:00 15.5 4 Sur 14 Sudoeste 0 -- -- 63
2020-03-13 10:00:00 13.1 3 Oeste 12 Sudoeste 0 -- -- 73
2020-03-13 09:00:00 11.8 2 Este 10 Sudeste 0 -- -- 78
2020-03-13 08:00:00 10.7 2 Este 9 Nordeste 0 -- -- 83
2020-03-13 07:00:00 10.1 3 Norte 8 Nordeste 0 -- -- 84
2020-03-13 06:00:00 10.7 4 Nordeste 12 Nordeste 0 -- -- 83
2020-03-13 05:00:00 11 4 Nordeste 15 Norte 0 -- -- 82
2020-03-13 04:00:00 11.2 0 Calma 8 Norte 0 -- -- 81
2020-03-13 03:00:00 12.2 0 Calma 12 Nordeste 0 -- -- 78
2020-03-13 02:00:00 12.1 3 Norte 9 Norte 0 -- -- 80
2020-03-13 01:00:00 11.7 0 Calma 5 Sudeste 0 -- -- 78
2020-03-13 00:00:00 13.1 3 Norte 8 Nordeste 0 -- -- 75
2020-03-12 23:00:00 14.5 3 Norte 16 Oeste 0 -- -- 67
2020-03-12 22:00:00 17.8 6 Sur 33 Sudeste 0 -- -- 56
2020-03-12 21:00:00 19.2 10 Sudeste 31 Sudeste 0 -- -- 49
2020-03-12 20:00:00 19.1 11 Sudeste 24 Sudeste 0 -- -- 54
2020-03-12 19:00:00 19.3 7 Sur 23 Sur 0 -- -- 57
2020-03-12 18:00:00 21.8 8 Sudeste 22 Sudeste 0 -- -- 52
2020-03-12 17:00:00 24.7 6 Sur 21 Oeste 0 -- -- 44
2020-03-12 16:00:00 26.4 8 Sudoeste 17 Sudoeste 0 -- -- 43
2020-03-12 15:00:00 26.5 5 Sudoeste 14 Sudeste 0 -- -- 42
2020-03-12 14:00:00 25.5 6 Sur 15 Sudoeste 0 -- -- 43
2020-03-12 13:00:00 24.6 6 Noroeste 13 Oeste 0 -- -- 43
2020-03-12 12:00:00 22.4 5 Sudoeste 13 Oeste 0 -- -- 47
2020-03-12 11:00:00 20.8 3 Sur 6 Sur 0 -- -- 50
2020-03-12 10:00:00 15.8 0 Calma 4 Sudeste 0 -- -- 73
2020-03-12 09:00:00 10.2 0 Calma 2 Sur 0 -- -- 83
2020-03-12 08:00:00 8.6 0 Calma 3 Sudeste 0 -- -- 85
2020-03-12 07:00:00 8.4 0 Calma 4 Sur 0 -- -- 84
2020-03-12 06:00:00 8.5 0 Calma 0 Calma 0 -- -- 86
2020-03-12 05:00:00 9.4 0 Calma 4 Sudeste 0 -- -- 83
2020-03-12 04:00:00 9.4 0 Calma 3 Noroeste 0 -- -- 86
2020-03-12 03:00:00 9.6 0 Calma 4 Sudeste 0 -- -- 84
2020-03-12 02:00:00 10.2 0 Calma 3 Noroeste 0 -- -- 84
2020-03-12 01:00:00 11.1 0 Calma 7 Sudeste 0 -- -- 82
2020-03-12 00:00:00 12 0 Calma 4 Nordeste 0 -- -- 81
2020-03-11 23:00:00 13 0 Calma 6 Norte 0 -- -- 79
2020-03-11 22:00:00 14.3 0 Calma 5 Noroeste 0 -- -- 76
2020-03-11 21:00:00 15.7 3 Nordeste 6 Nordeste 0 -- -- 72
2020-03-11 20:00:00 16.8 0 Calma 4 Norte 0 -- -- 66
2020-03-11 19:00:00 20.3 0 Calma 5 Norte 0 -- -- 53
2020-03-11 18:00:00 23.8 0 Calma 14 Noroeste 0 -- -- 40
2020-03-11 17:00:00 25.5 4 Noroeste 14 Norte 0 -- -- 32
2020-03-11 16:00:00 25.2 6 Oeste 13 Noroeste 0 -- -- 34
2020-03-11 15:00:00 24 4 Sur 17 Sudoeste 0 -- -- 37
2020-03-11 14:00:00 22.6 4 Oeste 21 Oeste 0 -- -- 41
2020-03-11 13:00:00 21.6 5 Oeste 18 Noroeste 0 -- -- 44
2020-03-11 12:00:00 19.5 7 Sudoeste 19 Oeste 0 -- -- 43
2020-03-11 11:00:00 17.9 5 Oeste 14 Noroeste 0 -- -- 45
2020-03-11 10:00:00 15.8 2 Norte 12 Nordeste 0 -- -- 50
2020-03-11 09:00:00 12.8 4 Este 14 Este 0 -- -- 54
2020-03-11 08:00:00 12.7 6 Este 19 Norte 0 -- -- 49
2020-03-11 07:00:00 13 7 Nordeste 18 Este 0 -- -- 47
2020-03-11 06:00:00 12.5 5 Este 14 Nordeste 0 -- -- 49
2020-03-11 05:00:00 13 8 Este 18 Este 0 -- -- 49
2020-03-11 04:00:00 10.9 6 Sudeste 16 Este 0 -- -- 62
2020-03-11 03:00:00 8.6 0 Calma 3 Sudoeste 0 -- -- 77
2020-03-11 02:00:00 8.8 0 Calma 4 Oeste 0 -- -- 78
2020-03-11 01:00:00 8.9 0 Calma 4 Sudoeste 0 -- -- 77
2020-03-11 00:00:00 9.7 0 Calma 6 Oeste 0 -- -- 73
2020-03-10 23:00:00 10.7 2 Sudeste 6 Oeste 0 -- -- 69
2020-03-10 22:00:00 11.5 0 Calma 5 Sur 0 -- -- 65
2020-03-10 21:00:00 12.6 0 Calma 5 Norte 0 -- -- 60
2020-03-10 20:00:00 13.6 0 Calma 4 Sudoeste 0 -- -- 56
2020-03-10 19:00:00 16.1 0 Calma 3 Oeste 0 -- -- 52
2020-03-10 18:00:00 19.4 0 Calma 10 Nordeste 0 -- -- 44
2020-03-10 17:00:00 19.7 3 Norte 9 Norte 0 -- -- 37
2020-03-10 16:00:00 19.3 4 Oeste 15 Oeste 0 -- -- 36
2020-03-10 15:00:00 17.6 8 Oeste 17 Sudoeste 0 -- -- 42
2020-03-10 14:00:00 16.7 5 Sur 14 Sudoeste 0 -- -- 44
2020-03-10 13:00:00 15.7 3 Sudeste 15 Sudoeste 0 -- -- 46
2020-03-10 12:00:00 14.4 6 Sudoeste 20 Oeste 0 -- -- 51
2020-03-10 11:00:00 11.7 3 Este 12 Norte 0 -- -- 61
2020-03-10 10:00:00 9.4 3 Nordeste 12 Nordeste 0 -- -- 68
2020-03-10 09:00:00 8.6 4 Este 12 Este 0 -- -- 69
2020-03-10 08:00:00 7.7 5 Este 12 Nordeste 0 -- -- 72
2020-03-10 07:00:00 7.4 4 Nordeste 11 Nordeste 0 -- -- 74
2020-03-10 06:00:00 6.6 4 Este 9 Nordeste 0 -- -- 78
2020-03-10 05:00:00 6.2 0 Calma 9 Nordeste 0 -- -- 79
2020-03-10 04:00:00 6.5 3 Nordeste 9 Norte 0 -- -- 80
2020-03-10 03:00:00 6.8 3 Nordeste 9 Norte 0 -- -- 77
2020-03-10 02:00:00 7.4 3 Sudoeste 11 Oeste 0 -- -- 73
2020-03-10 01:00:00 7 5 Norte 11 Noroeste 0 -- -- 71
2020-03-10 00:00:00 7.5 2 Sudeste 8 Sudoeste 0 -- -- 67